This demonstration page uses our WeatherBlox Daily Observations layout. Learn more.

Left ArrowRight Arrow

39.12711, -84.51439

Hourly Observations for January 1, 2017

Temp ( °F °C ) Dew Point ( °F °C ) Humidity (%) Winds ( mph kmh ) Pressure ( in mb ) Visibility ( mi km ) Precip ( " mm )
12:53 am 00:53 Mostly Clear 36 2.2 35 1.7 97 97 SW 3 6 30.01 1016 9 14 N/A
1:53 am 01:53 Clear 36 2.2 36 2.2 100 100 N N/A 30.03 1017 7 11 N/A
2:10 am 02:10 Clear with Mist and Fog 32 undefined 32 undefined 100 100 N N/A 30.06 1018 2 3 N/A
2:25 am 02:25 Clear with Mist and Fog 32 undefined 32 undefined 100 100 N N/A 30.06 1018 2 3 N/A
2:32 am 02:32 Clear with Mist and Fog 32 undefined 32 undefined 100 100 NE 3 6 30.06 1018 1 1 N/A
2:39 am 02:39 Mostly Cloudy with Freezing Fog 30 -1.1 30 -1.1 100 100 ENE 5 7 30.09 1019 1 1 N/A
2:48 am 02:48 Mostly Clear with Mist and Fog 30 -1 30 -1 100 100 ENE 3 6 30.09 1019 2 2 N/A
2:53 am 02:53 Mostly Clear with Mist and Fog 30 -1.1 30 -1.1 100 100 N N/A 30.06 1018 2 3 N/A
3:15 am 03:15 Partly Cloudy with Mist and Fog 29 -1.7 29 -1.7 100 100 N N/A 30.09 1019 1 1 N/A
3:21 am 03:21 Mostly Cloudy with Mist and Fog 30 -1.1 30 -1.1 100 100 N N/A 30.09 1019 1 1 N/A
3:27 am 03:27 Mostly Cloudy with Mist and Fog 28 -2.2 28 -2.2 100 100 N N/A 30.09 1019 2 3 N/A
3:39 am 03:39 Cloudy with Mist and Fog 30 -1.1 30 -1.1 100 100 N N/A 30.12 1020 1 2 N/A
3:53 am 03:53 Cloudy with Mist and Fog 32 undefined 32 undefined 100 100 N N/A 30.09 1019 3 5 N/A
4:32 am 04:32 Mostly Cloudy with Mist and Fog 32 undefined 32 undefined 100 100 N N/A 30.12 1020 4 6 N/A
4:42 am 04:42 Mostly Cloudy with Mist and Fog 32 undefined 32 undefined 100 100 N N/A 30.12 1020 4 6 N/A
4:49 am 04:49 Mostly Clear with Mist and Fog 32 undefined 32 undefined 100 100 N N/A 30.12 1020 3 5 N/A
4:51 am 04:51 Mostly Clear with Mist and Fog 30 -1 30 -1 100 100 N N/A 30.12 1020 2 2 N/A
4:53 am 04:53 Mostly Cloudy with Mist and Fog 31 -0.6 31 -0.6 100 100 N N/A 30.10 1019 1 2 N/A
4:55 am 04:55 Mostly Clear with Freezing Fog 30 -1.1 30 -1.1 100 100 N N/A 30.12 1020 1 1 N/A
4:58 am 04:58 Mostly Cloudy with Freezing Fog 30 -1.1 30 -1.1 100 100 N N/A 30.12 1020 0 0 N/A
5:05 am 05:05 Mostly Cloudy with Freezing Fog 30 -1.1 30 -1.1 100 100 N N/A 30.12 1020 0 0 N/A
5:15 am 05:15 Mostly Cloudy with Freezing Fog 30 -1.1 30 -1.1 100 100 N N/A 30.12 1020 1 1 N/A
5:25 am 05:25 Mostly Cloudy with Freezing Fog 28 -2.2 28 -2.2 100 100 N N/A 30.12 1020 0 0 N/A
5:42 am 05:42 Mostly Cloudy with Freezing Fog 28 -2 28 -2 100 100 N N/A 30.12 1020 0 0 N/A
5:53 am 05:53 Mostly Cloudy with Freezing Fog 29 -1.7 28 -2.2 96 96 N N/A 30.11 1020 0 0 N/A
6:18 am 06:18 Mostly Cloudy with Freezing Fog 30 -1 30 -1 100 100 N N/A 30.15 1021 0 0 N/A
6:28 am 06:28 Mostly Cloudy with Freezing Fog 30 -1 30 -1 100 100 N N/A 30.15 1021 0 0 N/A
6:40 am 06:40 Mostly Cloudy with Freezing Fog 30 -1 30 -1 100 100 NE 3 6 30.15 1021 0 0 N/A
6:53 am 06:53 Mostly Cloudy with Freezing Fog 30 -1.1 30 -1.1 100 100 N N/A 30.13 1020 0 0 N/A
7:12 am 07:12 Cloudy with Freezing Fog 30 -1 30 -1 100 100 N N/A 30.15 1021 1 1 N/A
7:18 am 07:18 Cloudy with Mist and Fog 30 -1 30 -1 100 100 N N/A 30.15 1021 1 2 N/A
7:53 am 07:53 Cloudy with Mist and Fog 32 undefined 32 undefined 100 100 N N/A 30.14 1021 1 1 N/A
8:20 am 08:20 Cloudy with Mist and Fog 32 undefined 32 undefined 100 100 NNE 5 7 30.18 1022 1 2 N/A
8:27 am 08:27 Cloudy with Mist and Fog 32 undefined 32 undefined 100 100 NNE 5 7 30.18 1022 1 2 N/A
8:34 am 08:34 Cloudy with Mist and Fog 32 undefined 32 undefined 100 100 NNE 5 7 30.18 1022 1 2 N/A
8:53 am 08:53 Cloudy with Mist and Fog 33 0.6 33 0.6 100 100 NE 3 6 30.16 1021 2 3 N/A
9:45 am 09:45 Cloudy with Mist and Fog 35 1.7 35 1.7 100 100 N 3 6 30.18 1022 2 3 N/A
9:53 am 09:53 Cloudy with Mist and Fog 35 1.7 35 1.7 100 100 N N/A 30.18 1022 2 3 N/A
9:59 am 09:59 Cloudy with Mist and Fog 36 2.2 36 2.2 100 100 NE 3 6 30.18 1022 1 1 N/A
10:11 am 10:11 Mostly Cloudy with Fog 36 2.2 36 2.2 100 100 NNE 3 6 30.18 1022 0 0 N/A
10:36 am 10:36 Mostly Cloudy with Fog 36 2 36 2 100 100 NNE 5 7 30.21 1023 1 1 N/A
10:53 am 10:53 Cloudy with Fog 36 2 36 2 100 100 NNE 5 7 30.21 1023 1 1 N/A
11:13 am 11:13 Mostly Cloudy with Fog 36 2.2 36 2.2 100 100 NNE 9 15 30.18 1022 0 0 N/A
11:28 am 11:28 Cloudy with Fog 37 2.8 37 2.8 100 100 NNE 9 15 30.18 1022 1 1 N/A
11:38 am 11:38 Cloudy with Mist and Fog 37 3 37 3 100 100 NE 8 13 30.18 1022 1 2 N/A
11:49 am 11:49 Cloudy with Mist and Fog 37 3 37 3 100 100 NE 8 13 30.21 1023 3 5 N/A
11:53 am 11:53 Cloudy with Mist and Fog 37 2.8 37 2.8 100 100 NE 8 13 30.20 1023 2 3 N/A
12:26 pm 12:26 Cloudy with Mist and Fog 37 3 37 3 100 100 NNE 8 13 30.18 1022 6 10 N/A
12:53 pm 12:53 Cloudy 40 4.4 38 3.3 93 93 NE 7 11 30.18 1022 8 13 N/A
1:38 pm 13:38 Partly Cloudy 45 7 37 3 76 76 VRB 3 6 30.15 1021 10 16 N/A
1:53 pm 13:53 Partly Cloudy 44 6.7 38 3.3 79 79 NNE 7 11 30.15 1021 10 16 N/A
2:53 pm 14:53 Partly Cloudy 47 8.3 39 3.9 74 74 VRB 6 9 30.12 1020 10 16 N/A
3:53 pm 15:53 Mostly Sunny 46 7.8 39 3.9 77 77 NE 6 9 30.14 1021 10 16 N/A
4:53 pm 16:53 Mostly Cloudy 45 7.2 38 3.3 77 77 SE 7 11 30.16 1021 10 16 N/A
5:53 pm 17:53 Mostly Cloudy 44 6.7 39 3.9 83 83 ESE 3 6 30.15 1021 10 16 N/A
6:53 pm 18:53 Cloudy 41 5 37 3 87 87 SSW 12 19 29.91 1013 10 16 N/A
7:53 pm 19:53 Cloudy 44 6.7 39 3.9 83 83 N 3 6 30.15 1021 10 16 N/A
8:53 pm 20:53 Cloudy 44 6.7 39 3.9 83 83 ENE 5 7 30.13 1020 10 16 N/A
9:53 pm 21:53 Cloudy 44 6.7 40 4.4 85 85 N 5 7 30.13 1020 10 16 N/A
10:48 pm 22:48 Cloudy 45 7 41 5 87 87 N 5 7 30.12 1020 10 16 N/A
10:53 pm 22:53 Cloudy 45 7.2 41 5 86 86 N 5 7 30.13 1020 10 16 N/A
11:53 pm 23:53 Cloudy with Mist and Fog 43 6.1 43 6.1 100 100 NE 3 6 30.12 1020 4 6 N/A

Powered by AerisWeather